DL9GJ-4 Weather Reports


Display with metric or nautical units.
time (UTC)temp
F
wind
direction
speed
MPH
gust
MPH
rain 1hr
in
rain 24hr
in
rain mn
in
humidity
%
barometer
mb
20240303124009 60 195 2.0 4.0 0.00 0.00 0.00 16 997.0
20240303123405 60 213 2.0 3.0 0.00 0.00 0.00 16 998.0
20240303122800 60 80 0.0 0.0 0.00 0.00 0.00 16 998.0
20240303122255 60 67 0.0 0.0 0.00 0.00 0.00 16 998.0
20240303122159 60 67 0.0 0.0 0.00 0.00 0.00 16 998.0
20240303120351 57 67 2.0 3.0 0.00 0.00 0.00 17 998.0
20240303115749 57 67 3.0 3.0 0.00 0.00 0.00 17 998.0
20240303114544 57 70 0.0 2.0 0.00 0.00 0.00 17 998.0
20240303105737 53 63 0.0 0.0 0.00 0.00 0.00 20 999.0
20240303105134 53 63 0.0 0.0 0.00 0.00 0.00 18 999.0
20240303103931 52 63 0.0 0.0 0.00 0.00 0.00 26 999.0
20240303102736 51 62 0.0 0.0 0.00 0.00 0.00 29 999.0
20240303102129 51 62 0.0 0.0 0.00 0.00 0.00 29 999.0
20240303101529 50 63 0.0 0.0 0.00 0.00 0.00 37 999.0
20240303095205 50 63 0.0 0.0 0.00 0.00 0.00 38 999.0
20240303095126 50 63 0.0 0.0 0.00 0.00 0.00 38 999.0
20240303094525 49 63 0.0 0.0 0.00 0.00 0.00 39 999.0
20240303093325 49 63 0.0 0.0 0.00 0.00 0.00 40 999.0
20240303090932 46 63 0.0 0.0 0.00 0.00 0.00 48 999.0
20240303085118 43 63 0.0 0.0 0.00 0.00 0.00 53 999.0
20240303084518 42 63 0.0 0.0 0.00 0.00 0.00 53 999.0
20240303083918 42 63 0.0 0.0 0.00 0.00 0.00 53 999.0
20240303083315 41 63 0.0 0.0 0.00 0.00 0.00 53 999.0
20240303081515 40 63 0.0 0.0 0.00 0.00 0.00 54 999.0
20240303074619 38 63 0.0 0.0 0.00 0.00 0.00 55 999.0
20240303074516 38 63 0.0 0.0 0.00 0.00 0.00 55 999.0
20240303073915 37 63 0.0 0.0 0.00 0.00 0.00 55 999.0
20240303073349 36 62 0.0 0.0 0.00 0.00 0.00 53 999.0
20240303073316 36 62 0.0 0.0 0.00 0.00 0.00 53 999.0
20240303072116 36 63 0.0 0.0 0.00 0.00 0.00 54 999.0
20240303071516 36 61 0.0 0.0 0.00 0.00 0.00 54 999.0
20240303070316 34 61 0.0 0.0 0.00 0.00 0.00 53 999.0
20240303064516 35 69 0.0 0.0 0.00 0.00 0.00 53 999.0
20240303064039 35 68 0.0 0.0 0.00 0.00 0.00 54 999.0
20240303063915 35 68 0.0 0.0 0.00 0.00 0.00 54 999.0
20240303063314 35 69 0.0 0.0 0.00 0.00 0.00 54 999.0
20240303062748 34 68 0.0 0.0 0.00 0.00 0.00 53 999.0
20240303062714 34 68 0.0 0.0 0.00 0.00 0.00 53 999.0
20240303062114 34 68 0.0 0.0 0.00 0.00 0.00 53 999.0
20240303061514 34 69 0.0 0.0 0.00 0.00 0.00 53 999.0
20240303055747 35 69 0.0 0.0 0.00 0.00 0.00 55 999.0
20240303055714 35 69 0.0 0.0 0.00 0.00 0.00 55 999.0
20240303055114 34 69 0.0 0.0 0.00 0.00 0.00 53 999.0
20240303054514 34 69 0.0 0.0 0.00 0.00 0.00 54 999.0
20240303052719 34 68 0.0 0.0 0.00 0.00 0.00 55 999.0
20240303052713 34 68 0.0 0.0 0.00 0.00 0.00 55 999.0
20240303051518 33 68 0.0 0.0 0.00 0.00 0.00 53 999.0
20240303051513 33 68 0.0 0.0 0.00 0.00 0.00 53 999.0
20240303044510 34 69 0.0 0.0 0.00 0.00 0.00 54 999.0
20240303043920 35 69 0.0 0.0 0.00 0.00 0.00 54 999.0
20240303043910 35 69 0.0 0.0 0.00 0.00 0.00 54 999.0
20240303043310 35 68 0.0 0.0 0.00 0.00 0.00 55 999.0
20240303042716 35 70 0.0 0.0 0.00 0.00 0.00 56 999.0
20240303042710 35 70 0.0 0.0 0.00 0.00 0.00 56 999.0
20240303042116 34 69 0.0 0.0 0.00 0.00 0.00 55 999.0
20240303042110 34 69 0.0 0.0 0.00 0.00 0.00 55 999.0
20240303041513 34 69 0.0 0.0 0.00 0.00 0.00 54 999.0
20240303040910 34 69 0.0 0.0 0.00 0.00 0.00 55 999.0
20240303040358 34 69 0.0 0.0 0.00 0.00 0.00 55 999.0
20240303040310 34 69 0.0 0.0 0.00 0.00 0.00 55 999.0
20240303035710 34 69 0.0 0.0 0.00 0.00 0.00 55 999.0
20240303035116 34 69 0.0 0.0 0.00 0.00 0.00 55 999.0
20240303035111 34 69 0.0 0.0 0.00 0.00 0.00 55 999.0
20240303034506 34 68 0.0 0.0 0.00 0.00 0.00 56 999.0
20240303033907 33 69 0.0 0.0 0.00 0.00 0.00 55 999.0
20240303033306 33 69 0.0 0.0 0.00 0.00 0.00 53 999.0
20240303030906 34 68 0.0 0.0 0.00 0.00 0.00 55 999.0
20240303025702 34 69 0.0 0.0 0.00 0.00 0.00 55 999.0
20240303025102 34 69 0.0 0.0 0.00 0.00 0.00 55 999.0
20240303024501 33 69 0.0 0.0 0.00 0.00 0.00 54 999.0
20240303023905 34 69 0.0 0.0 0.00 0.00 0.00 54 999.0
20240303023859 34 69 0.0 0.0 0.00 0.00 0.00 54 999.0
20240303023255 35 68 0.0 0.0 0.00 0.00 0.00 54 999.0
20240303022053 34 74 0.0 0.0 0.00 0.00 0.00 55 999.0
20240303021453 34 74 0.0 0.0 0.00 0.00 0.00 55 999.0
20240303020853 34 73 0.0 0.0 0.00 0.00 0.00 53 999.0
20240303020253 35 67 0.0 0.0 0.00 0.00 0.00 54 999.0
20240303015652 35 66 0.0 0.0 0.00 0.00 0.00 54 999.0
20240303014452 35 66 0.0 0.0 0.00 0.00 0.00 55 999.0
20240303013852 35 67 0.0 0.0 0.00 0.00 0.00 55 999.0
20240303013252 35 67 0.0 0.0 0.00 0.00 0.00 54 999.0
20240303010852 35 66 0.0 0.0 0.00 0.00 0.00 54 999.0
20240303010330 34 66 0.0 0.0 0.00 0.00 0.00 53 999.0
20240303010259 34 66 0.0 0.0 0.00 0.00 0.00 53 999.0
20240303010253 34 66 0.0 0.0 0.00 0.00 0.00 53 999.0
20240303004503 35 67 0.0 0.0 0.00 0.00 0.00 54 1000.0
20240303004452 35 67 0.0 0.0 0.00 0.00 0.00 54 1000.0
20240303002649 35 66 0.0 0.0 0.00 0.00 0.00 54 1000.0
20240303001443 36 66 0.0 0.0 0.00 0.00 0.00 54 1000.0
20240302235043 35 64 0.0 0.0 0.00 0.00 0.00 52 1000.0
20240302234448 35 64 0.0 0.0 0.00 0.00 0.00 52 1000.0
20240302234442 35 64 0.0 0.0 0.00 0.00 0.00 52 1000.0
20240302233842 36 64 0.0 2.0 0.00 0.00 0.00 53 1000.0
20240302231442 36 67 0.0 0.0 0.00 0.00 0.00 51 1000.0
20240302230242 37 67 2.0 2.0 0.00 0.00 0.00 51 1000.0
20240302225042 37 65 0.0 3.0 0.00 0.00 0.00 51 1000.0
20240302223231 37 66 0.0 0.0 0.00 0.00 0.00 50 1000.0
20240302222634 37 65 0.0 3.0 0.00 0.00 0.00 49 1000.0
20240302222628 37 65 0.0 3.0 0.00 0.00 0.00 49 1000.0
20240302222029 37 65 2.0 3.0 0.00 0.00 0.00 50 1000.0
20240302221429 37 37 0.0 2.0 0.00 0.11 0.00 49 1000.0
20240302220833 37 37 2.0 2.0 0.00 0.11 0.00 47 1000.0
20240302220826 37 37 2.0 2.0 0.00 0.11 0.00 47 1000.0
20240302215626 37 37 3.0 3.0 0.00 0.11 0.00 46 1000.0
20240302215025 38 37 0.0 3.0 0.00 0.11 0.00 46 1000.0
20240302214425 38 37 2.0 2.0 0.00 0.11 0.00 47 1000.0
20240302213824 38 37 2.0 3.0 0.00 0.11 0.00 46 1000.0
20240302213222 39 37 3.0 3.0 0.00 0.11 0.00 46 1000.0
20240302212627 39 37 0.0 0.0 0.00 0.11 0.00 46 1000.0
20240302212622 39 37 0.0 0.0 0.00 0.11 0.00 46 1000.0
20240302211422 40 37 2.0 2.0 0.00 0.11 0.00 44 1000.0
20240302210821 41 37 2.0 2.0 0.00 0.11 0.00 46 1000.0
20240302205619 40 37 0.0 3.0 0.00 0.11 0.00 45 1000.0
20240302205020 40 37 2.0 2.0 0.00 0.11 0.00 44 1000.0
20240302204418 41 37 0.0 0.0 0.00 0.11 0.00 44 1000.0
20240302203217 42 37 2.0 2.0 0.00 0.11 0.00 44 1000.0
20240302202617 42 37 2.0 2.0 0.00 0.11 0.00 44 1000.0
20240302202017 42 37 0.0 0.0 0.00 0.11 0.00 44 1000.0
20240302201417 42 37 0.0 0.0 0.00 0.11 0.00 43 1000.0
20240302200816 43 37 0.0 0.0 0.00 0.11 0.00 44 1000.0
20240302200213 43 37 3.0 3.0 0.00 0.11 0.00 44 1000.0
20240302195614 42 37 0.0 2.0 0.00 0.11 0.00 43 1000.0
20240302195014 43 351 0.0 2.0 0.00 0.11 0.00 43 1000.0
20240302193214 42 351 0.0 0.0 0.00 0.11 0.00 41 1000.0
20240302192613 42 351 2.0 3.0 0.00 0.11 0.00 40 1000.0
20240302192013 42 351 2.0 3.0 0.00 0.11 0.00 40 1001.0
20240302191413 42 351 0.0 3.0 0.00 0.11 0.00 40 1001.0
20240302190809 43 351 2.0 2.0 0.00 0.11 0.00 39 1001.0
20240302190210 44 351 2.0 2.0 0.00 0.11 0.00 39 1001.0
20240302185610 44 351 0.0 0.0 0.00 0.11 0.00 38 1001.0
20240302185010 44 351 3.0 3.0 0.00 0.11 0.00 38 1001.0
20240302183808 45 305 0.0 0.0 0.00 0.11 0.00 37 1001.0
20240302183208 46 305 0.0 0.0 0.00 0.11 0.00 37 1001.0
20240302182608 47 305 0.0 0.0 0.00 0.11 0.00 37 1001.0
20240302182008 47 305 0.0 0.0 0.00 0.11 0.00 37 1001.0
20240302181408 48 305 0.0 3.0 0.00 0.11 0.00 37 1001.0
20240302180241 49 327 3.0 3.0 0.00 0.11 0.00 37 1001.0
20240302180208 49 327 3.0 3.0 0.00 0.11 0.00 37 1001.0
20240302175608 49 22 0.0 3.0 0.00 0.11 0.00 36 1001.0
20240302175007 49 64 2.0 2.0 0.00 0.11 0.00 36 1001.0
20240302173807 50 64 3.0 4.0 0.00 0.11 0.00 36 1001.0
20240302172605 50 74 5.0 5.0 0.00 0.11 0.00 36 1000.0
20240302172101 50 77 5.0 5.0 0.00 0.11 0.00 34 1000.0
20240302172005 50 77 5.0 5.0 0.00 0.11 0.00 34 1000.0
20240302171406 50 97 5.0 5.0 0.00 0.11 0.00 34 1000.0
20240302170201 51 175 5.0 5.0 0.00 0.11 0.00 32 1000.0
20240302165558 51 84 5.0 6.0 0.00 0.11 0.00 32 1000.0
20240302164958 51 83 5.0 6.0 0.00 0.11 0.00 31 1000.0
20240302164357 51 92 5.0 5.0 0.00 0.11 0.00 31 1000.0
20240302163156 51 63 4.0 6.0 0.00 0.11 0.00 30 1000.0
20240302162554 51 104 5.0 6.0 0.00 0.11 0.00 29 1000.0
20240302160754 52 72 4.0 7.0 0.00 0.11 0.00 28 1000.0
20240302154352 54 75 6.0 6.0 0.00 0.11 0.00 27 1001.0
20240302153752 54 64 6.0 6.0 0.00 0.11 0.00 27 1001.0
20240302153152 54 74 6.0 6.0 0.00 0.11 0.00 26 1001.0
20240302152552 54 63 6.0 6.0 0.00 0.11 0.00 26 1001.0
20240302151950 54 39 5.0 6.0 0.00 0.11 0.00 27 1001.0
20240302150750 54 53 5.0 5.0 0.00 0.11 0.00 28 1001.0
20240302145548 53 73 4.0 4.0 0.00 0.11 0.00 28 1001.0
20240302144947 53 61 3.0 3.0 0.00 0.11 0.00 28 1001.0
20240302144347 53 51 2.0 4.0 0.00 0.11 0.00 28 1001.0
20240302141341 53 23 0.0 2.0 0.00 0.11 0.00 26 1001.0
20240302140136 53 49 5.0 5.0 0.00 0.11 0.00 26 1002.0
20240302133735 54 39 3.0 4.0 0.00 0.11 0.00 26 1002.0
20240302133136 54 59 3.0 3.0 0.00 0.11 0.00 27 1002.0
20240302132535 53 51 4.0 4.0 0.00 0.11 0.00 26 1002.0
20240302131335 53 81 5.0 5.0 0.00 0.11 0.00 26 1002.0
20240302130735 52 37 4.0 4.0 0.00 0.11 0.00 26 1002.0
20240302125535 52 74 3.0 4.0 0.00 0.11 0.00 26 1002.0